AEROCUBE 8C (41853 NORAD) Tracking and Keplerian Element Data

This shows tracking and keplerian element data for the satellite.

Feedback or suggestion? Click here.




ElementValue
Catalog41853
NameAEROCUBE 8C
Epoch Orbit18483
Epoch Day91.77171002
Epoch Year2020
RAAN197.7011
Inclination97.9194
Eccentricity0.0011102
Argument of Perigee144.3083
Mean Anonmoly215.8883
Mean Motion14.96830785
Decay Rate8.19E-06
L11 41853U 16067F 20091.77171002 .00000819 00000-0 76716-4 0 9997
L22 41853 97.9194 197.7011 0011102 144.3083 215.8883 14.96830785184836

Live tracking and technical data element details for AEROCUBE 8C (NORAD 41853). AEROCUBE 8C can be tracked NOW for your location showing map with azimuth and elevation plus other details from your city location.

Track the satellite on the map from your city or location and see movement details for azimuth, elevation, latitude, longitude, range, height, and movement on the map or in text.







IsCatalogInMostPopularTable: catalog: 41853, numindb: 328
Update: records affected: 1



GetName: 41853 AEROCUBE 8C

Hit Count: updated at: Thu, 02 Apr 2020 03:47:40 GMT